[[[{"header":{"parameterUnit":"kt","parameterCategory":2,"dx":1,"dy":1,"la1":30.253999710083008,"la2":30.299108505249023,"lo1":-89.0895004272461,"lo2":-89.04439544677734,"nx":28,"ny":28,"refTime":"2022-10-28T21:00:00:Z","depth":0,"parameterNumber":1,"parameterNumberName":"U-component_of_WINDS"},"data":[-5.588,-5.5989,-5.5979,-5.6101,-5.6113,-5.6195,-5.6222,-5.6256,-5.6282,-5.6382,-5.6439,-5.6443,-5.6467,-5.6536,-5.66,-5.6601,-5.6629,-5.6676,-5.6669,-5.6465,-5.6436,-5.6409,-5.6379,-5.6682,-5.6683,-5.6882,-5.6884,-5.6885,-5.5735,-5.5746,-5.5807,-5.5859,-5.5912,-5.586,-5.5899,-5.5947,-5.6024,-5.6056,-5.6111,-5.62,-5.627,-5.6279,-5.6346,-5.6402,-5.6382,-5.6421,-5.6416,-5.6421,-5.6202,-5.6171,-5.6435,-5.6435,-5.6435,-5.6435,-5.6435,-5.6435,-5.5468,-5.5534,-5.5557,-5.5623,-5.5646,-5.5682,-5.5745,-5.5744,-5.5806,-5.587,-5.5848,-5.5935,-5.5968,-5.6044,-5.6068,-5.6138,-5.6094,-5.6134,-5.6144,-5.6154,-5.6167,-5.5882,-5.615,-5.6149,-5.6148,-5.6148,-5.6147,0,-5.5268,-5.5254,-5.531,-5.5364,-5.5411,-5.5453,-5.5489,-5.5528,-5.5496,-5.5549,-5.5625,-5.5667,-5.5753,-5.5825,-5.5886,-5.5902,-5.5856,-5.5851,-5.5878,-5.5889,-5.5893,-5.5892,-5.5536,-5.5843,-5.584,-5.5838,-5.5837,-5.5836,-5.4998,-5.5075,-5.5094,-5.5135,-5.5151,-5.522,-5.5258,-5.5223,-5.5267,-5.5309,-5.5371,-5.5441,-5.5496,-5.5623,-5.5625,-5.569,-5.5668,-5.5786,-5.5678,-5.5686,-5.567,-5.5666,-5.5674,-5.5807,-5.5811,-5.5814,-5.5816,0,-5.4847,-5.4825,-5.4942,-5.4952,-5.4958,-5.5043,-5.5053,-5.5119,-5.5111,-5.5202,-5.5221,-5.5211,-5.5287,-5.5269,-5.5354,-5.5343,-5.549,-5.5467,-5.5478,-5.5472,-5.5576,-5.5567,-5.5916,-5.596,-5.5646,-5.5649,-5.5652,0,-5.4607,-5.4711,-5.4673,-5.4742,-5.4858,-5.4817,-5.4934,-5.4938,-5.4961,-5.5032,-5.4973,-5.5042,-5.5007,-5.5075,-5.5058,-5.5175,-5.519,-5.5189,-5.5183,-5.5194,-5.5194,-5.5217,-5.5202,-5.5167,-5.5165,-5.5163,-5.5162,0,-5.4372,-5.4473,-5.4584,-5.4604,-5.4625,-5.4679,-5.4691,-5.4715,-5.4754,-5.4802,-5.4827,-5.4887,-5.492,-5.497,-5.4946,-5.4874,-5.5088,-5.4983,-5.5087,-5.5087,-5.5134,-5.5131,-5.5445,-5.516,-5.5159,-5.5159,-5.5158,0,-5.4174,-5.4217,-5.4383,-5.4398,-5.4426,-5.4501,-5.4553,-5.4612,-5.4643,-5.4635,-5.4673,-5.4631,-5.4729,-5.4627,-5.4763,-5.4674,-5.4712,-5.4718,-5.4725,-5.4732,-5.4617,-5.4796,-5.5098,-5.5129,-5.4741,-5.4738,-5.4735,0,-5.3911,-5.407,-5.4033,-5.4192,-5.4262,-5.4188,-5.4271,-5.4298,-5.4294,-5.4356,-5.4353,-5.4424,-5.4343,-5.4363,-5.4433,-5.4433,-5.4549,-5.4417,-5.4512,-5.4516,-5.4504,-5.4782,-5.483,-5.5034,-5.469,-5.4694,-5.4698,0,-5.3703,-5.3722,-5.3752,-5.3772,-5.3798,-5.3856,-5.3952,-5.4011,-5.4053,-5.409,-5.417,-5.4271,-5.4213,-5.4246,-5.4218,-5.4292,-5.447,-5.4221,-5.4221,-5.4267,-5.4665,-5.4711,-5.4745,-5.4435,-5.4441,-5.4445,-5.4662,0,-5.3409,-5.3484,-5.3565,-5.3609,-5.365,-5.3747,-5.372,-5.3768,-5.3734,-5.3726,-5.3844,-5.3861,-5.3924,-5.3957,-5.3926,-5.41,-5.4068,-5.4006,-5.3903,-5.4086,-5.4157,-5.4186,-5.38,-5.3797,-5.3794,-5.3792,0,0,-5.3162,-5.3268,-5.3223,-5.331,-5.3342,-5.3261,-5.3367,-5.339,-5.3437,-5.3462,-5.3404,-5.3548,-5.3564,-5.371,-5.3765,-5.3791,-5.3821,-5.3757,-5.3999,-5.4023,-5.4044,-5.412,-5.4151,-5.3787,-5.3786,-5.3785,-5.3785,0,-5.3047,-5.3059,-5.3162,-5.3182,-5.3209,-5.3193,-5.3219,-5.3232,-5.3231,-5.3344,-5.3277,-5.3345,-5.346,-5.3486,-5.3515,-5.3739,-5.3686,-5.3761,-5.3889,-5.3973,-5.4,-5.4024,-5.4104,-5.4134,-5.3778,-5.3778,-5.3779,0,-5.2836,-5.2843,-5.2889,-5.2955,-5.2972,-5.3046,-5.293,-5.3013,-5.3069,-5.2978,-5.309,-5.3097,-5.313,-5.327,-5.3332,-5.3282,-5.3564,-5.347,-5.3486,-5.3493,-5.3573,-5.3606,-5.3634,-5.3256,-5.3255,-5.3253,0,0,-5.2741,-5.2809,-5.2804,-5.2927,-5.2943,-5.292,-5.2956,-5.2925,-5.2952,-5.2964,-5.2969,-5.3001,-5.3068,-5.3112,-5.3173,-5.3331,-5.3336,-5.3407,-5.3432,-5.3452,-5.3469,-5.3555,-5.3587,-5.3246,-5.3246,-5.3246,0,0,-5.2696,-5.2693,-5.2652,-5.279,-5.2818,-5.2823,-5.29,-5.2851,-5.2901,-5.2887,-5.2841,-5.2847,-5.2978,-5.2987,-5.2902,-5.3136,-5.3035,-5.3055,-5.3125,-5.3156,-5.318,-5.3174,-5.2787,0,0,0,0,0,-5.2562,-5.2693,-5.2656,-5.2674,-5.2756,-5.2843,-5.2854,-5.2815,-5.2744,-5.2807,-5.2804,-5.2743,-5.2932,-5.2856,-5.2877,-5.2971,-5.3162,-5.3177,-5.3191,-5.3318,-5.3351,-5.3378,0,0,0,0,0,0,-5.2568,-5.2591,-5.2652,-5.2663,-5.2681,-5.2838,-5.2709,-5.2702,-5.2736,-5.2723,-5.2746,-5.2744,-5.2715,-5.2842,-5.2862,-5.2952,-5.278,-5.3168,-5.3181,-5.3192,-5.333,-5.3356,-5.3379,0,0,0,0,0,-5.2574,-5.2592,-5.2732,-5.2661,-5.2676,-5.2657,-5.2703,-5.2697,-5.2723,-5.2717,-5.2713,-5.2691,-5.2719,-5.2733,-5.2854,-5.2944,-5.2766,-5.2774,-5.3176,-5.3186,-5.3195,-5.3343,0,0,0,0,0,0,-5.2578,-5.2588,-5.2735,-5.2738,-5.2606,-5.2648,-5.2652,-5.2693,-5.2714,-5.2712,-5.266,-5.2649,-5.2723,-5.2733,-5.2745,-5.2943,-5.2755,-5.2763,-5.2767,-5.3184,-5.3192,-5.3199,0,0,0,0,0,0,-5.2578,-5.2591,-5.2736,-5.267,-5.2666,-5.2639,-5.2644,-5.2741,-5.2716,-5.2655,-5.2647,-5.2655,-5.2707,-5.2734,-5.2743,-5.2896,-5.2746,-5.2754,-5.2759,-5.2762,-5.319,-5.3196,0,0,0,0,0,0,-5.2583,-5.2595,-5.2669,-5.2666,-5.2661,-5.2698,-5.2725,-5.2812,-5.2655,-5.2656,-5.2641,-5.2634,-5.2711,-5.2718,-5.2742,-5.2892,-5.2895,-5.2747,-5.2752,-5.2755,-5.2757,0,0,0,0,0,0,0,-5.2587,-5.2517,-5.2714,-5.2662,-5.2658,-5.2771,-5.2772,-5.2773,-5.2654,-5.2648,-5.2642,-5.2637,-5.2705,-5.2713,-5.2721,-5.2889,0,0,-5.2746,-5.2749,0,0,0,0,0,0,0,0,-5.2511,-5.2515,-5.2714,-5.2714,-5.2715,-5.2771,-5.2772,-5.2772,-5.2653,-5.2648,-5.2643,-5.2639,-5.2707,-5.2713,-5.272,0,0,0,0,0,0,0,0,0,0,0,0,0,0,0,-5.2714,-5.2714,0,-5.2771,-5.2772,-5.2772,-5.2652,-5.2648,-5.2644,-5.2641,-5.2709,-5.2714,-5.2719,0,0,0,0,0,0,0,0,0,0,0,0,0,0,0,0,0,0,0,0,0,0,0,0,0,0,0,0,0,0,0,0,0,0,0,0,0,0,0,0,0,0,0,0,0,0,0,0,0,0,0,0,0,0,0,0,0,0,0,0,0,0,0,0,0,0,0,0,0]}],[{"header":{"parameterUnit":"kt","parameterCategory":2,"dx":1,"dy":1,"la1":30.253999710083008,"la2":30.299108505249023,"lo1":-89.0895004272461,"lo2":-89.04439544677734,"nx":28,"ny":28,"refTime":"2022-10-28T21:00:00:Z","depth":0,"parameterNumber":2,"parameterNumberName":"V-component_of_WINDS"},"data":[1.2124,1.2144,1.2188,1.223,1.2276,1.2312,1.2339,1.2377,1.2419,1.2466,1.2501,1.2545,1.2603,1.2654,1.2692,1.2711,1.2724,1.27,1.2726,1.2796,1.2808,1.282,1.2819,1.2703,1.2703,1.2648,1.2648,1.2647,1.2174,1.2221,1.2256,1.2319,1.2349,1.24,1.2453,1.2475,1.2505,1.2556,1.2592,1.2636,1.2676,1.2743,1.2788,1.2797,1.2822,1.2806,1.2806,1.2814,1.289,1.2889,1.2785,1.2785,1.2785,1.2785,1.2785,1.2785,1.2277,1.2287,1.2351,1.2389,1.2433,1.2474,1.2491,1.2546,1.258,1.2633,1.2677,1.2711,1.277,1.2844,1.2879,1.2907,1.2932,1.2927,1.2926,1.2924,1.2916,1.299,1.2916,1.2917,1.2917,1.2918,1.2918,0,1.2366,1.2402,1.2438,1.2487,1.2517,1.2559,1.2604,1.2616,1.2705,1.2728,1.2766,1.2795,1.2851,1.289,1.2942,1.298,1.3032,1.3041,1.3039,1.3018,1.2993,1.3007,1.3129,1.3043,1.3044,1.3045,1.3046,1.3046,1.2472,1.2478,1.2566,1.2585,1.2621,1.265,1.2677,1.2756,1.278,1.2846,1.285,1.2891,1.2927,1.2978,1.3041,1.3082,1.3107,1.307,1.3114,1.3094,1.3107,1.3106,1.3107,1.3059,1.3058,1.3056,1.3055,0,1.2528,1.26,1.2622,1.2708,1.273,1.2731,1.2804,1.2816,1.2868,1.2891,1.2901,1.2981,1.3016,1.3085,1.3137,1.3172,1.3175,1.3198,1.3156,1.3164,1.3138,1.314,1.304,1.3032,1.3153,1.3152,1.3151,0,1.2647,1.2651,1.2757,1.2766,1.2774,1.2853,1.2857,1.2902,1.2954,1.2973,1.3045,1.306,1.3146,1.3172,1.3223,1.3237,1.3247,1.3274,1.3288,1.3268,1.3264,1.328,1.3285,1.3317,1.3318,1.3318,1.3319,0,1.2727,1.2788,1.2804,1.2829,1.292,1.2925,1.2962,1.3021,1.3045,1.3087,1.3104,1.3147,1.317,1.3202,1.3267,1.3294,1.3286,1.3336,1.3314,1.3312,1.3307,1.3306,1.3202,1.3319,1.3319,1.3319,1.332,0,1.2833,1.2877,1.2888,1.2966,1.2979,1.2988,1.3037,1.3061,1.3117,1.3151,1.3184,1.324,1.3257,1.3303,1.3329,1.3346,1.3364,1.3392,1.3392,1.3397,1.3446,1.3378,1.3272,1.3264,1.3403,1.3404,1.3404,0,1.2906,1.2936,1.3005,1.3013,1.3037,1.3118,1.3129,1.3176,1.3222,1.3248,1.3299,1.3326,1.3375,1.3393,1.3397,1.3449,1.3427,1.3454,1.3489,1.3489,1.3472,1.3376,1.3342,1.3288,1.3414,1.3413,1.3412,0,1.297,1.3082,1.3078,1.3111,1.3188,1.3207,1.322,1.3266,1.328,1.3324,1.3337,1.3377,1.3416,1.3444,1.3493,1.3493,1.3444,1.3534,1.3537,1.3516,1.3425,1.3394,1.3384,1.3477,1.3476,1.3475,1.342,0,1.3116,1.314,1.3134,1.3202,1.3228,1.3236,1.3312,1.3329,1.3375,1.3423,1.3442,1.3497,1.3541,1.3548,1.3591,1.357,1.3584,1.3624,1.3673,1.3608,1.3592,1.3586,1.3691,1.3693,1.3694,1.3696,0,0,1.3167,1.3204,1.3278,1.3294,1.3321,1.3404,1.3406,1.3441,1.3509,1.3525,1.3554,1.3617,1.366,1.3674,1.366,1.3677,1.368,1.3699,1.3638,1.3631,1.3626,1.3607,1.3599,1.3698,1.3699,1.37,1.37,0,1.3236,1.3282,1.3284,1.3325,1.3387,1.3439,1.3439,1.3515,1.3545,1.3564,1.3631,1.365,1.3697,1.3735,1.376,1.37,1.3747,1.3707,1.3651,1.3651,1.3643,1.3635,1.3615,1.3606,1.3704,1.3704,1.3703,0,1.3314,1.3371,1.338,1.3445,1.3486,1.3508,1.3579,1.3597,1.3614,1.37,1.3717,1.3757,1.3812,1.3816,1.382,1.3845,1.3805,1.383,1.3822,1.3823,1.3827,1.3816,1.3807,1.3932,1.3932,1.3933,0,0,1.3363,1.3386,1.3471,1.3466,1.3487,1.3563,1.3582,1.3629,1.3679,1.3698,1.375,1.3794,1.3824,1.384,1.3871,1.3864,1.3881,1.3855,1.3844,1.3835,1.3831,1.3832,1.3822,1.3935,1.3935,1.3935,0,0,1.3386,1.3485,1.3523,1.3527,1.3573,1.3654,1.3648,1.3696,1.3731,1.3738,1.3817,1.3832,1.3837,1.3873,1.389,1.3889,1.3936,1.3933,1.3866,1.3853,1.3843,1.3834,1.3968,0,0,0,0,0,1.3495,1.3473,1.3507,1.3519,1.36,1.3636,1.3647,1.3713,1.3746,1.3739,1.3791,1.3841,1.3899,1.3916,1.3925,1.3905,1.3959,1.3955,1.3951,1.3862,1.3849,1.3837,0,0,0,0,0,0,1.35,1.3515,1.3508,1.3587,1.3606,1.3638,1.3708,1.3725,1.3748,1.3758,1.3829,1.3843,1.3898,1.3916,1.3923,1.3902,1.3966,1.3958,1.3954,1.3951,1.3858,1.3846,1.3837,0,0,0,0,0,1.3505,1.3517,1.3629,1.3588,1.3605,1.3688,1.3709,1.3724,1.3743,1.3822,1.3838,1.3791,1.3896,1.3907,1.392,1.3897,1.3961,1.3963,1.3955,1.3952,1.395,1.3852,0,0,0,0,0,0,1.3508,1.353,1.3634,1.3642,1.3602,1.3687,1.3703,1.3723,1.3807,1.3822,1.3788,1.3794,1.3894,1.3903,1.3911,1.3892,1.3957,1.396,1.3961,1.3953,1.3951,1.3949,0,0,0,0,0,0,1.3524,1.3536,1.3638,1.3651,1.3661,1.3686,1.3701,1.3721,1.3807,1.3768,1.3777,1.379,1.3881,1.39,1.3906,1.3935,1.3954,1.3957,1.3958,1.3959,1.3951,1.3949,0,0,0,0,0,0,1.353,1.354,1.365,1.3657,1.3666,1.3753,1.3705,1.3784,1.3821,1.3763,1.3826,1.3828,1.3877,1.3885,1.3903,1.3928,1.3933,1.3954,1.3956,1.3957,1.3958,0,0,0,0,0,0,0,1.3535,1.3454,1.3591,1.3662,1.367,1.371,1.3712,1.3714,1.3821,1.3823,1.3825,1.3827,1.394,1.3943,1.3945,1.3923,0,0,1.3954,1.3955,0,0,0,0,0,0,0,0,1.3451,1.3453,1.3591,1.3592,1.3594,1.371,1.3712,1.3714,1.3821,1.3823,1.3825,1.3826,1.3941,1.3943,1.3945,0,0,0,0,0,0,0,0,0,0,0,0,0,0,0,1.3591,1.3592,0,1.3711,1.3712,1.3713,1.3822,1.3823,1.3824,1.3826,1.3941,1.3943,1.3945,0,0,0,0,0,0,0,0,0,0,0,0,0,0,0,0,0,0,0,0,0,0,0,0,0,0,0,0,0,0,0,0,0,0,0,0,0,0,0,0,0,0,0,0,0,0,0,0,0,0,0,0,0,0,0,0,0,0,0,0,0,0,0,0,0,0,0,0,0]}]]]